Location: ??????
(41.3164°N, 22.6615°E)
Time: 05:14:34
(UTC+00:00)

ITAMSAT 1 - Visible Passes

Search period start: 26 June 2022 00:00
Search period end: 06 July 2022 00:00
Orbit: 783 x 796 km, 98.9° (Epoch: 25 June)

Date Brightness Start Highest point End Pass type
(mag) Time Alt. Az. Time Alt. Az. Time Alt. Az.
26 Jun 10.0 18:36:27 10° SW 18:40:24 22° W 18:44:23 10° NW visible
29 Jun 10.2 18:47:54 10° SW 18:51:19 18° W 18:54:45 10° NW visible
02 Jul 10.3 18:59:36 10° WSW 19:02:14 14° W 19:04:53 10° WNW visible
05 Jul 10.6 19:11:57 10° WSW 19:13:10 11° W 19:14:24 10° WNW visible
